This is the latest recevied weather packets stored in our database for station/object IR9AK-10. If no packets are shown the sender has not sent any weather packets the latest 10 day(s).
| Time | Temp. | Humidity | Pressure | Rain* | Wind** | Luminosity | Snow |
|---|---|---|---|---|---|---|---|
| 1778013420 | 20.56° C | 54% | 1059.9 hPa | - | - | - | - |
| 1778012820 | 20.56° C | 53% | 1060.1 hPa | - | - | - | - |
| 1778012221 | 20° C | 56% | 1060.1 hPa | - | - | - | - |
| 1778011621 | 20° C | 61% | 1060.2 hPa | - | - | - | - |
| 1778011022 | 20° C | 63% | 1060.3 hPa | - | - | - | - |
| 1778010424 | 20° C | 64% | 1060.5 hPa | - | - | - | - |
| 1778009825 | 20.56° C | 65% | 1060.4 hPa | - | - | - | - |
| 1778009226 | 20.56° C | 65% | 1060.6 hPa | - | - | - | - |
| 1778008626 | 20.56° C | 65% | 1060.6 hPa | - | - | - | - |
| 1778008028 | 20.56° C | 65% | 1060.8 hPa | - | - | - | - |
| 1778007428 | 20.56° C | 63% | 1060.7 hPa | - | - | - | - |
| 1778006830 | 20.56° C | 63% | 1060.7 hPa | - | - | - | - |
| 1778006231 | 21.11° C | 63% | 1060.7 hPa | - | - | - | - |
| 1778005632 | 21.11° C | 63% | 1060.7 hPa | - | - | - | - |
| 1778004651 | 21.11° C | 63% | 1060.7 hPa | - | - | - | - |
| 1778004052 | 21.11° C | 63% | 1060.8 hPa | - | - | - | - |
| 1778003453 | 21.11° C | 62% | 1060.9 hPa | - | - | - | - |
| 1778002854 | 21.11° C | 62% | 1060.9 hPa | - | - | - | - |
| 1778002256 | 21.11° C | 62% | 1060.9 hPa | - | - | - | - |
| 1778001656 | 21.11° C | 64% | 1061 hPa | - | - | - | - |
| 1778001057 | 21.11° C | 61% | 1061 hPa | - | - | - | - |
| 1778000458 | 21.11° C | 62% | 1061 hPa | - | - | - | - |
| 1777999859 | 21.11° C | 63% | 1061 hPa | - | - | - | - |
| 1777999260 | 21.11° C | 62% | 1061.1 hPa | - | - | - | - |
| 1777998661 | 21.67° C | 59% | 1061 hPa | - | - | - | - |
* Rain since midnight (hover to see other rain measurements)
** Current wind speed in m/s (hover to see current wind gust speed)